Location: Casteau
(50.5142°N, 4.0161°E)
Time: 22:59:16
(UTC+00:00)

ATLAS 2AS CENTAUR R/B - Pass Details

Date: 18 September 2020
Orbit: 939 x 1273 km, 63.7° (Epoch: 27 October)

Event Time Altitude Azimuth Distance (km) Brightness Sun altitude
Rises 21:01:59 0° 209° (SSW) 4,196 5.7 -28.4°
Reaches altitude 10° 21:04:46 10° 207° (SSW) 3,248 5.0 -28.7°
Enters shadow 21:04:49 10° 207° (SSW) 3,232 5.0 -28.7°
Exits shadow 21:11:57 66° 157° (SSE) 1,373 2.9 -29.5°
Maximum altitude 21:12:38 70° 126° (SE) 1,348 2.9 -29.6°
Drops below altitude 10° 21:20:26 10° 46° (NE) 3,222 5.2 -30.4°
Sets 21:23:11 0° 44° (NE) 4,161 5.9 -30.7°
